Time,TemperatureF,DewpointF,PressureIn,WindDirection,WindDirectionDegrees,WindSpeedMPH,WindSpeedGustMPH,Humidity,HourlyPrecipIn,Conditions,Clouds,dailyrainin,SoftwareType,DateUTC
2013-04-17 09:29:00,54.0,54.0,30.22,WNW,302,0.0,0.0,100,-99.99,,,-99.99,VWS V14.01,2013-04-17 13:29:00,
2013-04-17 09:34:00,54.0,54.0,30.22,WNW,302,0.0,0.0,100,-99.99,,,-99.99,VWS V14.01,2013-04-17 13:34:00,
2013-04-17 09:39:00,53.9,53.9,30.22,WNW,302,0.0,0.0,100,-99.99,,,-99.99,VWS V14.01,2013-04-17 13:39:00,
2013-04-17 09:44:00,53.9,53.9,30.22,WNW,302,0.0,0.0,100,-99.99,,,-99.99,VWS V14.01,2013-04-17 13:44:00,
2013-04-17 09:49:00,53.8,53.8,30.23,WNW,302,0.0,0.0,100,-99.99,,,-99.99,VWS V14.01,2013-04-17 13:49:00,
2013-04-17 09:54:00,53.8,53.8,30.23,WNW,302,0.0,0.0,100,-99.99,,,-99.99,VWS V14.01,2013-04-17 13:54:00,
2013-04-17 09:59:00,53.8,53.8,30.23,WNW,302,0.0,0.0,100,-99.99,,,-99.99,VWS V14.01,2013-04-17 13:59:00,
2013-04-17 10:04:00,53.4,53.4,30.23,SE,125,0.0,0.0,100,-99.99,,,-99.99,VWS V14.01,2013-04-17 14:04:00,
2013-04-17 10:09:00,52.8,52.8,30.23,SE,134,0.0,9.6,100,-99.99,,,-99.99,VWS V14.01,2013-04-17 14:09:00,
2013-04-17 10:14:00,49.9,49.9,30.23,ESE,117,7.5,8.5,100,-99.99,,,-99.99,VWS V14.01,2013-04-17 14:14:00,
2013-04-17 10:22:00,51.5,51.5,30.23,ESE,104,0.0,0.0,100,-99.99,,,-99.99,VWS V14.01,2013-04-17 14:22:00,
2013-04-17 10:27:00,51.2,51.2,30.23,ESE,121,4.5,5.3,100,-99.99,,,-99.99,VWS V14.01,2013-04-17 14:27:00,
2013-04-17 10:32:00,51.2,51.2,30.23,ENE,63,0.0,1.3,100,-99.99,,,-99.99,VWS V14.01,2013-04-17 14:32:00,
2013-04-17 10:37:00,51.1,51.1,30.23,ESE,107,0.0,0.0,100,-99.99,,,-99.99,VWS V14.01,2013-04-17 14:37:00,
2013-04-17 10:42:00,50.8,50.8,30.23,ESE,117,0.0,0.0,100,-99.99,,,-99.99,VWS V14.01,2013-04-17 14:42:00,
2013-04-17 10:47:00,51.6,51.6,30.24,ESE,117,0.0,0.0,100,-99.99,,,-99.99,VWS V14.01,2013-04-17 14:47:00,
2013-04-17 10:54:00,51.7,51.7,30.24,ESE,117,0.0,0.0,100,-99.99,,,-99.99,VWS V14.01,2013-04-17 14:54:00,
2013-04-17 10:59:00,51.7,51.7,30.24,ESE,117,0.0,0.0,100,-99.99,,,-99.99,VWS V14.01,2013-04-17 14:59:00,
2013-04-17 11:10:00,52.2,52.2,30.24,ESE,117,0.0,0.0,100,-99.99,,,-99.99,VWS V14.01,2013-04-17 15:10:00,
2013-04-17 11:15:00,52.3,52.3,30.24,ESE,117,0.0,0.0,100,-99.99,,,-99.99,VWS V14.01,2013-04-17 15:15:00,
2013-04-17 11:20:00,52.6,52.6,30.24,ESE,117,0.0,0.0,100,-99.99,,,-99.99,VWS V14.01,2013-04-17 15:20:00,
2013-04-17 11:45:00,53.2,52.3,30.23,ESE,117,0.0,0.0,97,-99.99,,,-99.99,VWS V14.01,2013-04-17 15:45:00,
2013-04-17 12:03:00,54.4,52.9,30.23,ESE,117,0.0,0.0,95,-99.99,,,-99.99,VWS V14.01,2013-04-17 16:03:00,
2013-04-17 12:08:00,54.7,52.9,30.23,ESE,117,0.0,0.0,94,-99.99,,,-99.99,VWS V14.01,2013-04-17 16:08:00,
2013-04-17 12:13:00,54.9,52.9,30.23,ESE,117,0.0,0.0,93,-99.99,,,-99.99,VWS V14.01,2013-04-17 16:13:00,
2013-04-17 12:18:00,55.1,52.8,30.24,ESE,117,0.0,0.0,92,-99.99,,,-99.99,VWS V14.01,2013-04-17 16:18:00,
2013-04-17 12:23:00,55.3,52.8,30.23,ESE,117,0.0,0.0,91,-99.99,,,-99.99,VWS V14.01,2013-04-17 16:23:00,
2013-04-17 12:28:00,55.5,52.8,30.23,ESE,117,0.0,0.0,91,-99.99,,,-99.99,VWS V14.01,2013-04-17 16:28:00,
2013-04-17 12:33:00,55.8,52.9,30.23,ESE,117,0.0,0.0,90,-99.99,,,-99.99,VWS V14.01,2013-04-17 16:33:00,
2013-04-17 12:38:00,56.1,53.0,30.23,ESE,117,0.0,0.0,89,-99.99,,,-99.99,VWS V14.01,2013-04-17 16:38:00,
2013-04-17 12:43:00,56.3,52.6,30.23,ESE,117,0.0,0.0,87,-99.99,,,-99.99,VWS V14.01,2013-04-17 16:43:00,
2013-04-17 12:48:00,56.7,53.1,30.23,ESE,117,0.0,0.0,88,-99.99,,,-99.99,VWS V14.01,2013-04-17 16:48:00,
2013-04-17 12:53:00,57.0,53.0,30.23,ESE,117,0.0,0.0,86,-99.99,,,-99.99,VWS V14.01,2013-04-17 16:53:00,
2013-04-17 12:58:00,57.2,52.8,30.22,ESE,117,0.0,0.0,85,-99.99,,,-99.99,VWS V14.01,2013-04-17 16:58:00,
2013-04-17 13:03:00,57.4,53.0,30.22,ESE,117,0.0,0.0,85,-99.99,,,-99.99,VWS V14.01,2013-04-17 17:03:00,
2013-04-17 13:08:00,57.8,53.3,30.22,ESE,117,0.0,0.0,85,-99.99,,,-99.99,VWS V14.01,2013-04-17 17:08:00,
2013-04-17 13:13:00,58.2,53.7,30.21,ESE,117,0.0,0.0,85,-99.99,,,-99.99,VWS V14.01,2013-04-17 17:13:00,
2013-04-17 13:18:00,58.3,52.9,30.21,ESE,117,0.0,0.0,82,-99.99,,,-99.99,VWS V14.01,2013-04-17 17:18:00,
2013-04-17 13:23:00,58.8,53.4,30.21,ESE,117,0.0,0.0,82,-99.99,,,-99.99,VWS V14.01,2013-04-17 17:23:00,
2013-04-17 13:28:00,59.2,53.7,30.21,ESE,117,0.0,0.0,82,-99.99,,,-99.99,VWS V14.01,2013-04-17 17:28:00,
2013-04-17 13:33:00,59.2,52.6,30.20,ESE,117,0.0,0.0,79,-99.99,,,-99.99,VWS V14.01,2013-04-17 17:33:00,
2013-04-17 13:38:00,59.8,53.7,30.20,ESE,117,0.0,0.0,80,-99.99,,,-99.99,VWS V14.01,2013-04-17 17:38:00,
2013-04-17 13:43:00,60.0,53.3,30.20,ESE,117,0.0,0.0,78,-99.99,,,-99.99,VWS V14.01,2013-04-17 17:43:00,
2013-04-17 13:47:00,60.5,53.7,30.20,ESE,117,0.0,0.0,78,-99.99,,,-99.99,VWS V14.01,2013-04-17 17:47:00,
2013-04-17 13:52:00,60.7,52.8,30.20,ESE,117,0.0,0.0,75,-99.99,,,-99.99,VWS V14.01,2013-04-17 17:52:00,
2013-04-17 13:57:00,60.9,51.6,30.20,ENE,66,0.0,0.0,71,-99.99,,,-99.99,VWS V14.01,2013-04-17 17:57:00,
2013-04-17 14:02:00,61.2,51.8,30.20,East,100,0.0,0.0,71,-99.99,,,-99.99,VWS V14.01,2013-04-17 18:02:00,
2013-04-17 14:07:00,61.7,53.3,30.20,East,100,0.0,0.0,74,-99.99,,,-99.99,VWS V14.01,2013-04-17 18:07:00,
2013-04-17 14:12:00,61.9,52.7,30.20,East,100,0.0,0.0,72,-99.99,,,-99.99,VWS V14.01,2013-04-17 18:12:00,
2013-04-17 14:17:00,62.0,52.3,30.20,East,100,0.0,0.0,70,-99.99,,,-99.99,VWS V14.01,2013-04-17 18:17:00,
2013-04-17 14:22:00,62.3,52.6,30.20,East,100,0.0,0.0,71,-99.99,,,-99.99,VWS V14.01,2013-04-17 18:22:00,
2013-04-17 14:27:00,62.5,52.6,30.20,East,100,0.0,0.0,70,-99.99,,,-99.99,VWS V14.01,2013-04-17 18:27:00,
2013-04-17 14:34:00,62.9,53.1,30.20,East,100,0.0,0.0,70,-99.99,,,-99.99,VWS V14.01,2013-04-17 18:34:00,
2013-04-17 14:39:00,63.3,53.7,30.20,SE,125,0.0,0.0,71,-99.99,,,-99.99,VWS V14.01,2013-04-17 18:39:00,
2013-04-17 14:44:00,63.4,53.3,30.20,SE,125,0.0,0.0,70,-99.99,,,-99.99,VWS V14.01,2013-04-17 18:44:00,
2013-04-17 14:49:00,63.6,53.8,30.20,SE,125,0.0,0.0,70,-99.99,,,-99.99,VWS V14.01,2013-04-17 18:49:00,
2013-04-17 14:53:00,63.7,54.2,30.20,SE,125,0.0,0.0,71,-99.99,,,-99.99,VWS V14.01,2013-04-17 18:53:00,
2013-04-17 14:58:00,63.8,54.1,30.20,SE,125,0.0,0.0,71,-99.99,,,-99.99,VWS V14.01,2013-04-17 18:58:00,
2013-04-17 15:03:00,63.8,54.0,30.20,SE,125,0.0,0.0,70,-99.99,,,-99.99,VWS V14.01,2013-04-17 19:03:00,
2013-04-17 15:08:00,63.8,54.1,30.20,SE,125,0.0,0.0,71,-99.99,,,-99.99,VWS V14.01,2013-04-17 19:08:00,
2013-04-17 15:13:00,63.6,53.8,30.20,SE,125,0.0,0.0,70,-99.99,,,-99.99,VWS V14.01,2013-04-17 19:13:00,
2013-04-17 15:18:00,63.5,53.5,30.20,SE,125,0.0,0.0,70,-99.99,,,-99.99,VWS V14.01,2013-04-17 19:18:00,
2013-04-17 15:23:00,63.5,53.5,30.19,SE,125,0.0,0.0,70,-99.99,,,-99.99,VWS V14.01,2013-04-17 19:23:00,
2013-04-17 15:28:00,63.4,53.5,30.19,SE,125,0.0,0.0,70,-99.99,,,-99.99,VWS V14.01,2013-04-17 19:28:00,
2013-04-17 15:33:00,63.4,53.7,30.20,SE,125,0.0,0.0,71,-99.99,,,-99.99,VWS V14.01,2013-04-17 19:33:00,
2013-04-17 15:38:00,63.3,53.7,30.19,SE,125,0.0,0.0,71,-99.99,,,-99.99,VWS V14.01,2013-04-17 19:38:00,
2013-04-17 15:43:00,63.3,53.5,30.19,SE,125,0.0,0.0,70,-99.99,,,-99.99,VWS V14.01,2013-04-17 19:43:00,
2013-04-17 15:48:00,63.4,53.3,30.19,SE,125,0.0,0.0,70,-99.99,,,-99.99,VWS V14.01,2013-04-17 19:48:00,
2013-04-17 15:53:00,63.5,53.5,30.19,SE,125,0.0,0.0,70,-99.99,,,-99.99,VWS V14.01,2013-04-17 19:53:00,
2013-04-17 15:58:00,63.6,53.6,30.19,SE,125,0.0,0.0,70,-99.99,,,-99.99,VWS V14.01,2013-04-17 19:58:00,
2013-04-17 16:03:00,63.8,54.1,30.18,SE,125,0.0,0.0,71,-99.99,,,-99.99,VWS V14.01,2013-04-17 20:03:00,
2013-04-17 16:08:00,64.0,54.0,30.19,SE,125,0.0,0.0,70,-99.99,,,-99.99,VWS V14.01,2013-04-17 20:08:00,
2013-04-17 16:13:00,64.0,53.8,30.19,SE,125,0.0,0.0,70,-99.99,,,-99.99,VWS V14.01,2013-04-17 20:13:00,
2013-04-17 16:18:00,64.4,54.2,30.19,SE,125,0.0,0.0,70,-99.99,,,-99.99,VWS V14.01,2013-04-17 20:18:00,
2013-04-17 16:23:00,64.1,52.7,30.18,SE,125,0.0,0.0,66,-99.99,,,-99.99,VWS V14.01,2013-04-17 20:23:00,
2013-04-17 16:28:00,64.5,53.5,30.18,SE,125,0.0,0.0,68,-99.99,,,-99.99,VWS V14.01,2013-04-17 20:28:00,
2013-04-17 16:33:00,64.4,52.6,30.18,SE,125,0.0,0.0,66,-99.99,,,-99.99,VWS V14.01,2013-04-17 20:33:00,
2013-04-17 16:38:00,64.5,52.6,30.17,SE,125,0.0,0.0,65,-99.99,,,-99.99,VWS V14.01,2013-04-17 20:38:00,
2013-04-17 16:43:00,64.5,53.2,30.18,SE,125,0.0,0.0,67,-99.99,,,-99.99,VWS V14.01,2013-04-17 20:43:00,
2013-04-17 16:48:00,64.7,53.4,30.18,SE,125,0.0,0.0,67,-99.99,,,-99.99,VWS V14.01,2013-04-17 20:48:00,
2013-04-17 16:53:00,65.0,53.9,30.18,SE,125,0.0,0.0,67,-99.99,,,-99.99,VWS V14.01,2013-04-17 20:53:00,
2013-04-17 16:58:00,64.8,53.0,30.19,SE,125,0.0,0.0,66,-99.99,,,-99.99,VWS V14.01,2013-04-17 20:58:00,
2013-04-17 17:03:00,65.0,53.3,30.19,SE,125,0.0,0.0,66,-99.99,,,-99.99,VWS V14.01,2013-04-17 21:03:00,
2013-04-17 17:08:00,65.1,53.4,30.19,SE,125,0.0,0.0,66,-99.99,,,-99.99,VWS V14.01,2013-04-17 21:08:00,
2013-04-17 17:13:00,65.2,53.7,30.19,SE,125,0.0,0.0,66,-99.99,,,-99.99,VWS V14.01,2013-04-17 21:13:00,
2013-04-17 17:18:00,65.3,53.2,30.19,SE,125,0.0,0.0,65,-99.99,,,-99.99,VWS V14.01,2013-04-17 21:18:00,
2013-04-17 17:23:00,65.1,52.7,30.18,SE,125,0.0,0.0,64,-99.99,,,-99.99,VWS V14.01,2013-04-17 21:23:00,
2013-04-17 17:28:00,65.1,52.7,30.18,SE,125,0.0,0.0,64,-99.99,,,-99.99,VWS V14.01,2013-04-17 21:28:00,
2013-04-17 17:33:00,65.3,53.2,30.19,SE,125,0.0,0.0,65,-99.99,,,-99.99,VWS V14.01,2013-04-17 21:33:00,
2013-04-17 17:38:00,65.1,53.0,30.19,SE,125,0.0,0.0,65,-99.99,,,-99.99,VWS V14.01,2013-04-17 21:38:00,
2013-04-17 17:43:00,65.2,53.2,30.19,SE,125,0.0,0.0,65,-99.99,,,-99.99,VWS V14.01,2013-04-17 21:43:00,
2013-04-17 17:48:00,65.1,52.6,30.19,SE,125,0.0,0.0,64,-99.99,,,-99.99,VWS V14.01,2013-04-17 21:48:00,
2013-04-17 17:53:00,65.1,52.4,30.18,SE,125,0.0,0.0,64,-99.99,,,-99.99,VWS V14.01,2013-04-17 21:53:00,
2013-04-17 17:58:00,65.0,52.4,30.18,SE,125,0.0,0.0,64,-99.99,,,-99.99,VWS V14.01,2013-04-17 21:58:00,
2013-04-17 18:03:00,65.1,52.8,30.18,SE,125,0.0,0.0,64,-99.99,,,-99.99,VWS V14.01,2013-04-17 22:03:00,
2013-04-17 18:08:00,65.4,53.3,30.18,SE,125,0.0,0.0,65,-99.99,,,-99.99,VWS V14.01,2013-04-17 22:08:00,
2013-04-17 18:13:00,65.4,53.3,30.18,SE,125,0.0,0.0,65,-99.99,,,-99.99,VWS V14.01,2013-04-17 22:13:00,
2013-04-17 18:18:00,65.6,53.3,30.18,SE,125,0.0,0.0,64,-99.99,,,-99.99,VWS V14.01,2013-04-17 22:18:00,
2013-04-17 18:23:00,65.6,53.1,30.18,SE,125,0.0,0.0,64,-99.99,,,-99.99,VWS V14.01,2013-04-17 22:23:00,
2013-04-17 18:28:00,65.8,53.4,30.18,SE,125,0.0,0.0,64,-99.99,,,-99.99,VWS V14.01,2013-04-17 22:28:00,
2013-04-17 18:33:00,65.7,53.1,30.18,SE,125,0.0,0.0,64,-99.99,,,-99.99,VWS V14.01,2013-04-17 22:33:00,
2013-04-17 18:38:00,65.7,53.2,30.18,SE,125,0.0,0.0,64,-99.99,,,-99.99,VWS V14.01,2013-04-17 22:38:00,
2013-04-17 18:43:00,65.5,52.4,30.18,SE,125,0.0,0.0,63,-99.99,,,-99.99,VWS V14.01,2013-04-17 22:43:00,
2013-04-17 18:48:00,65.4,52.3,30.17,SE,125,0.0,0.0,62,-99.99,,,-99.99,VWS V14.01,2013-04-17 22:48:00,
2013-04-17 18:53:00,65.5,52.8,30.17,SE,125,0.0,0.0,63,-99.99,,,-99.99,VWS V14.01,2013-04-17 22:53:00,
2013-04-17 18:58:00,65.5,52.8,30.17,SE,125,0.0,0.0,64,-99.99,,,-99.99,VWS V14.01,2013-04-17 22:58:00,
2013-04-17 19:03:00,65.4,52.8,30.17,SE,125,0.0,0.0,64,-99.99,,,-99.99,VWS V14.01,2013-04-17 23:03:00,
2013-04-17 19:08:00,65.4,52.4,30.17,SE,125,0.0,0.0,63,-99.99,,,-99.99,VWS V14.01,2013-04-17 23:08:00,
2013-04-17 19:13:00,65.2,51.9,30.17,SE,125,0.0,0.0,62,-99.99,,,-99.99,VWS V14.01,2013-04-17 23:13:00,
2013-04-17 19:18:00,65.4,52.4,30.17,SE,125,0.0,0.0,63,-99.99,,,-99.99,VWS V14.01,2013-04-17 23:18:00,
2013-04-17 19:23:00,65.4,52.0,30.17,SE,125,0.0,0.0,62,-99.99,,,-99.99,VWS V14.01,2013-04-17 23:23:00,
2013-04-17 19:28:00,65.3,51.9,30.17,SE,125,0.0,0.0,62,-99.99,,,-99.99,VWS V14.01,2013-04-17 23:28:00,
2013-04-17 19:33:00,65.2,52.0,30.17,SE,125,0.0,0.0,62,-99.99,,,-99.99,VWS V14.01,2013-04-17 23:33:00,
2013-04-17 19:38:00,65.2,52.1,30.17,SE,125,0.0,0.0,62,-99.99,,,-99.99,VWS V14.01,2013-04-17 23:38:00,
2013-04-17 19:43:00,65.2,52.3,30.17,SE,125,0.0,0.0,63,-99.99,,,-99.99,VWS V14.01,2013-04-17 23:43:00,
2013-04-17 19:48:00,65.0,52.3,30.18,SE,125,0.0,0.0,63,-99.99,,,-99.99,VWS V14.01,2013-04-17 23:48:00,
2013-04-17 19:53:00,64.9,52.3,30.18,SE,125,0.0,0.0,64,-99.99,,,-99.99,VWS V14.01,2013-04-17 23:53:00,
2013-04-17 19:58:00,64.9,52.5,30.18,SE,125,0.0,0.0,64,-99.99,,,-99.99,VWS V14.01,2013-04-17 23:58:00,
2013-04-17 20:03:00,64.8,52.7,30.18,SE,125,0.0,0.0,65,-99.99,,,-99.99,VWS V14.01,2013-04-18 00:03:00,
2013-04-17 20:08:00,64.7,52.9,30.18,SE,125,0.0,0.0,66,-99.99,,,-99.99,VWS V14.01,2013-04-18 00:08:00,
2013-04-17 20:13:00,64.6,53.2,30.18,SE,125,0.0,0.0,67,-99.99,,,-99.99,VWS V14.01,2013-04-18 00:13:00,
2013-04-17 20:18:00,64.5,53.2,30.18,SE,125,0.0,0.0,67,-99.99,,,-99.99,VWS V14.01,2013-04-18 00:18:00,
2013-04-17 20:23:00,64.4,53.9,30.18,SE,125,0.0,0.0,69,-99.99,,,-99.99,VWS V14.01,2013-04-18 00:23:00,
2013-04-17 20:28:00,64.1,54.0,30.18,SE,125,0.0,0.0,70,-99.99,,,-99.99,VWS V14.01,2013-04-18 00:28:00,
2013-04-17 20:33:00,63.8,54.0,30.18,SE,125,0.0,0.0,70,-99.99,,,-99.99,VWS V14.01,2013-04-18 00:33:00,
2013-04-17 20:38:00,63.7,53.9,30.18,SE,125,0.0,0.0,70,-99.99,,,-99.99,VWS V14.01,2013-04-18 00:38:00,
2013-04-17 20:43:00,63.5,53.7,30.18,SE,125,0.0,0.0,70,-99.99,,,-99.99,VWS V14.01,2013-04-18 00:43:00,
2013-04-17 20:48:00,63.5,54.2,30.18,SE,125,0.0,0.0,72,-99.99,,,-99.99,VWS V14.01,2013-04-18 00:48:00,
2013-04-17 20:53:00,63.2,54.2,30.18,SE,125,0.0,0.0,72,-99.99,,,-99.99,VWS V14.01,2013-04-18 00:53:00,
2013-04-17 20:58:00,63.1,54.0,30.19,SE,125,0.0,0.0,72,-99.99,,,-99.99,VWS V14.01,2013-04-18 00:58:00,
2013-04-17 21:03:00,62.9,53.8,30.19,SE,125,0.0,0.0,72,-99.99,,,-99.99,VWS V14.01,2013-04-18 01:03:00,
2013-04-17 21:08:00,62.8,53.3,30.19,SE,125,0.0,0.0,71,-99.99,,,-99.99,VWS V14.01,2013-04-18 01:08:00,
2013-04-17 21:13:00,62.8,53.3,30.19,SE,125,0.0,0.0,71,-99.99,,,-99.99,VWS V14.01,2013-04-18 01:13:00,
2013-04-17 21:18:00,62.9,53.4,30.19,SE,125,0.0,0.0,71,-99.99,,,-99.99,VWS V14.01,2013-04-18 01:18:00,
2013-04-17 21:22:00,62.9,53.1,30.19,SE,125,0.0,0.0,70,-99.99,,,-99.99,VWS V14.01,2013-04-18 01:22:00,
2013-04-17 21:27:00,63.0,53.0,30.20,East,82,0.0,0.0,70,-99.99,,,-99.99,VWS V14.01,2013-04-18 01:27:00,
2013-04-17 21:33:00,63.0,53.0,30.20,East,82,0.0,0.0,70,-99.99,,,-99.99,VWS V14.01,2013-04-18 01:33:00,
2013-04-17 21:38:00,62.9,53.0,30.20,East,82,0.0,0.0,70,-99.99,,,-99.99,VWS V14.01,2013-04-18 01:38:00,
2013-04-17 21:43:00,63.0,53.2,30.20,East,82,0.0,0.0,70,-99.99,,,-99.99,VWS V14.01,2013-04-18 01:43:00,
2013-04-17 21:47:00,62.9,53.1,30.20,East,82,0.0,0.0,70,-99.99,,,-99.99,VWS V14.01,2013-04-18 01:47:00,
2013-04-17 21:52:00,62.8,53.0,30.20,East,82,0.0,0.0,70,-99.99,,,-99.99,VWS V14.01,2013-04-18 01:52:00,
2013-04-17 21:57:00,62.8,53.1,30.20,East,82,0.0,0.0,71,-99.99,,,-99.99,VWS V14.01,2013-04-18 01:57:00,
2013-04-17 22:02:00,62.7,52.9,30.20,East,82,0.0,0.0,70,-99.99,,,-99.99,VWS V14.01,2013-04-18 02:02:00,